Location: Nitra
(0.0000°N, 18.0833°E)
Time: 20:25:05
(UTC+02:00)

A-11 Canister half - Pass Details

Date: 09 April 2023
Orbit: 1526 x 1682 km, 47.3° (Epoch: 08 June)

Event Time Altitude Azimuth Distance (km) Brightness Sun altitude
Rises 21:43:40 0° 319° (NW) 4,795 12.1 -43.1°
Reaches altitude 10° 21:46:47 10° 319° (NW) 3,790 11.5 -43.9°
Enters shadow 21:52:52 45° 316° (NW) 2,027 9.7 -45.4°
Maximum altitude 21:56:24 85° 232° (SW) 1,561 - -46.2°
Drops below altitude 10° 22:05:46 10° 142° (SE) 3,701 - -48.5°
Sets 22:08:47 0° 142° (SE) 4,678 - -49.3°
